Location: Góry Miechowskie
(50.3599°N, 20.1803°E)
Time: 21:50:42
(UTC+00:00)

Tiros 1 despin weight - Pass Details

Date: 14 September 2024
Orbit: 572 x 614 km, 48.2° (Epoch: 12 October)

Event Time Altitude Azimuth Distance (km) Brightness Sun altitude
Rises 02:01:36 0° 212° (SSW) 2,862 - -20.5°
Reaches altitude 10° 02:04:16 10° 198° (SSW) 1,966 - -20.2°
Exits shadow 02:06:27 20° 172° (S) 1,439 ? -19.9°
Maximum altitude 02:07:48 23° 146° (SE) 1,328 ? -19.7°
Drops below altitude 10° 02:11:21 10° 95° (E) 1,981 ? -19.2°
Sets 02:14:03 0° 80° (E) 2,889 ? -18.9°
